Location: Elbart
(49.6135°N, 11.9134°E)
Time: 05:27:28
(UTC+00:00)

Thor Agena Rocket - Pass Details

Date: 09 April 2020
Orbit: 760 x 807 km, 99.0° (Epoch: 29 May)

Event Time Altitude Azimuth Distance (km) Brightness Sun altitude
Rises 21:30:26 0° 18° (NNE) 3,242 7.3 -28.1°
Reaches altitude 10° 21:32:47 10° 22° (NNE) 2,316 6.4 -28.3°
Enters shadow 21:36:22 43° 46° (NE) 1,077 4.3 -28.6°
